Regional Weather Roundup
Issued by NWS

Home | Current Version | Previous Version | Graphics & Text | Print | Product List | Glossary On
Versions: 1 2 3 4 5 6 7 8 9 10 11 12 13 14 15 16 17 18 19 20 21 22 23 24 25 26 27 28 29 30 31 32 33 34 35 36 37 38 39 40 41 42 43 44 45 46 47 48 49 50
000
ASUS43 KMKX 201200
RWRWI

WISCONSIN REGIONAL WEATHER ROUNDUP
NATIONAL WEATHER SERVICE MILWAUKEE/SULLIVAN WI
700 AM CDT WED SEP 20 2017

NOTE: "FAIR" INDICATES FEW OR NO CLOUDS BELOW 12,000 FEET WITH NO
SIGNIFICANT WEATHER AND/OR OBSTRUCTIONS TO VISIBILITY.

WIZ001-002-006>008-014>016-023>028-201300-
NORTHWEST WISCONSIN

CITY           SKY/WX    TMP DP  RH WIND       PRES   REMARKS
SUPERIOR ARPT  CLOUDY    62  61  99 SE5       29.65R
ASHLAND        CLOUDY    62  61  96 VRB5      29.73F
6HR MIN TEMP:  61; 6HR MAX TEMP:  67; 6HR PCP:  0.51;

HAYWARD        CLOUDY    64  61  90 E7G17     29.70F
6HR MIN TEMP:  62; 6HR MAX TEMP:  67; 6HR PCP:  0.73;

SIREN          CLOUDY    65  64  94 SE8       29.65S
CUMBERLAND     CLOUDY    64  61  88 SE10      29.68F
RICE LAKE      CLOUDY    65  63  91 SE9       29.70F
CHETEK         CLOUDY    64  64  97 SE13G23   29.70F
LADYSMITH      CLOUDY    64  62  93 SE9       29.77S
EAU CLAIRE     NOT AVBL
MENOMONIE      CLOUDY    65  65 100 E10       29.69F
NEW RICHMOND   CLOUDY    69  63  81 SE12G20   29.66R
OSCEOLA        CLOUDY    70  64  83 SE13      29.67R
$$

WIZ003>005-009-010-017-018-201300-
NORTH CENTRAL WISCONSIN

CITY           SKY/WX    TMP DP  RH WIND       PRES   REMARKS
MANITOWISH WTR CLOUDY    60  60 100 W14       29.84R THUNDER
ARBOR VITAE    CLOUDY    60  57  91 SE13G21   29.80S
WOODRUFF       CLOUDY    60  57  91 SE13G21   29.80S
RHINELANDER    CLOUDY    60  59  96 S10       29.84R
6HR MIN TEMP:  56; 6HR MAX TEMP:  60;

EAGLE RIVER    CLOUDY    59  58  96 SE5       29.83R
LAND O LAKES   CLOUDY    59  56  90 SE8       29.84F
PHILLIPS       TSTM      62  62  99 SE7       29.80R
6HR MIN TEMP:  59; 6HR MAX TEMP:  64; 6HR PCP:  0.08;

TOMAHAWK         N/A     59  57  91 SE5       29.80F
MEDFORD        CLOUDY    62  59  90 SE13G23   29.76F
MERRILL        NOT AVBL
$$

WIZ029-030-035-036-043>047-201300-
CENTRAL WISCONSIN

CITY           SKY/WX    TMP DP  RH WIND       PRES   REMARKS
WAUSAU         CLOUDY    61  60  97 SE12G21   29.80F FOG
6HR MIN TEMP:  59; 6HR MAX TEMP:  61;

MOSINEE        MOCLDY    61  61 100 SE10G21   29.82F FOG
MARSHFIELD     CLOUDY    64  59  83 SE12G21   29.77F
6HR MIN TEMP:  60; 6HR MAX TEMP:  64;

STEVENS POINT  MOCLDY    60  60 100 SE7       29.83F FOG
WAUPACA        CLOUDY    63  63  98 SE5       29.86F FOG
WAUTOMA        CLOUDY    62  61  96 E5        29.86R FOG
6HR MIN TEMP:  57; 6HR MAX TEMP:  62;

WISC RAPIDS    MOCLDY    64  61  90 SE10G17   29.81F
6HR MIN TEMP:  61; 6HR MAX TEMP:  64; 6HR PCP: TRACE;

CAMP DOUGLAS   NOT AVBL
$$

WIZ011>013-019>022-031-037>040-048>050-201300-
NORTHEAST WISCONSIN

CITY           SKY/WX    TMP DP  RH WIND       PRES   REMARKS
ANTIGO         FOG       58  58 100 SE12G17   29.88R VSB 1
SHAWANO        CLOUDY    62  60  94 S6        29.88R
OCONTO         CLOUDY    63  63  98 SE13      29.89S
STURGEON BAY   CLOUDY    64  63  96 SE10      29.92S FOG
6HR MIN TEMP:  61; 6HR MAX TEMP:  65;

GREEN BAY      CLOUDY    63  63 100 SE8       29.89F FOG
6HR MIN TEMP:  52; 6HR MAX TEMP:  63;

MANITOWOC      CLOUDY    64  64 100 SE9       29.92S FOG
APPLETON       MOCLDY    64  64 100 SE10      29.87S FOG
CLINTONVILLE   CLOUDY    55  55 100 CALM      29.87S FOG
OSHKOSH        CLOUDY    63  62  97 SE8       29.87F FOG
6HR MIN TEMP:  57; 6HR MAX TEMP:  63;

$$

WIZ032>034-041-042-053>061-201300-
SOUTHWEST WISCONSIN

CITY           SKY/WX    TMP DP  RH WIND       PRES   REMARKS
LA CROSSE      CLOUDY    71  64  78 S13       29.74R
6HR MIN TEMP:  71; 6HR MAX TEMP:  72;

SPARTA         CLOUDY    69  63  81 S7        29.76R
VIROQUA        CLOUDY    66  64  96 SE16      29.77S
BOSCOBEL       PTCLDY    70  63  78 VRB3      29.78S
6HR MIN TEMP:  68; 6HR MAX TEMP:  70;

PRAIRIE DU CHI MOCLDY    67  62  82 SE3       29.76S
PLATTEVILLE    CLEAR     66  66 100 SE13      29.82R
$$

WIZ056-057-062-063-064-067-068-201300-
SOUTH CENTRAL WISCONSIN

CITY           SKY/WX    TMP DP  RH WIND       PRES   REMARKS
REEDSBURG      CLOUDY    65  64  98 S5        29.81R
BARABOO/DELLS  CLOUDY    64  61  88 SE13G20   29.82S
LONE ROCK      CLOUDY    66  64  93 E8        29.81S FOG
6HR MIN TEMP:  65; 6HR MAX TEMP:  66;

MINERAL POINT  CLOUDY    66  64  94 SE13G18   29.82S FOG
MADISON        MOCLDY    67  63  87 S16       29.84F
6HR MIN TEMP:  61; 6HR MAX TEMP:  67;

MIDDLETON      CLEAR     65  64  97 SE8       29.85F
WATERTOWN      CLEAR     63  63 100 SE8       29.87F FOG
MONROE         CLEAR     63  61  94 SE10      29.85F FOG
JANESVILLE     PTCLDY    66  66 100 SE12      29.87S FOG
$$

WIZ051-052-058>065-066-070>072-201300-
SOUTHEAST WISCONSIN

CITY           SKY/WX    TMP DP  RH WIND       PRES   REMARKS
MILWAUKEE      FOG       65  65 100 S6        29.91F VSB 1/4
6HR MIN TEMP:  58; 6HR MAX TEMP:  65;

WAUKESHA       MOCLDY    63  63 100 SE6       29.93S FOG
MILWAUKEE/TIMM FOG       63  61  94 S5        29.92S VSB<1/4
RACINE         CLOUDY    67  67 100 S8        29.94R FOG
6HR MIN TEMP:  57; 6HR MAX TEMP:  67;

BURLINGTON     FOG       62  62 100 SE5       29.91F VSB 3/4
KENOSHA        FOG       66  65  96 SE7       29.93R VSB<1/4
6HR MIN TEMP:  55; 6HR MAX TEMP:  66;

FOND DU LAC    CLEAR     64  60  87 SE9       29.88F
6HR MIN TEMP:  60; 6HR MAX TEMP:  64;

SHEBOYGAN      FOG       64  64 100 S6        29.92R VSB 1
6HR MIN TEMP:  50; 6HR MAX TEMP:  64;

WEST BEND      FOG       61  61 100 SE3       29.91S VSB 1/4
JUNEAU         CLEAR     62  62  98 SE10      29.89F FOG
$$

LSZ147-162-201300-
LAKE SUPERIOR

STATION/POSITION TIME  TEMP    WIND        PRES    WAVE
                       AIR SEA DIR/SP/G            HT/PER
                 (UTC) (F)     (DEG/KT/KT) (MB)    (FT/S)
W MID LAKE BUOY  1050   59 54  190/ 10/ 12 1009.4R   3/ 5
DEVILS ISLAND    1100   63     130/ 11/ 13 1006.2F
PORT WING        1140   63     120/  5/  8 1005.1S
SAXON HARBOR     1140   64     160/  3/  7 1007.5R
$$

LMZ867-665-643>646-201300-
LAKE MICHIGAN

STATION/POSITION TIME  TEMP    WIND        PRES    WAVE
                       AIR SEA DIR/SP/G            HT/PER
                 (UTC) (F)     (DEG/KT/KT) (MB)    (FT/S)
S GREEN BAY BUOY 1130   65 66  150/ 14/ 16 1012.0F
N MID LAKE BUOY  1050   64 65  170/ 14/ 17 1014.3F   2/ 3
NORTHPORT PIER   1140   65     160/  9/ 14 1013.2S
KEWAUNEE LAKESHO 1130   62     160/ 10/ 12 1012.3S
SHEBOYGAN LAKESH 1100   66     140/ 14/ 14 1012.5F
PORT WASHINGTON  1130   68     150/  8/ 10 1013.9S
ATWATER BUOY     1009   68 68  150/  8/ 10 1013.2F
MILWAUKEE LAKESH 1130   67     160/  8/  9   N/A
S MID LAKE BUOY  1050   68 68  100/  6/  8 1013.6F   1
KENOSHA   LAKESH 1100   67     180/  5/  6 1013.2
$$

TC  - TEMPERATURE IN CELSIUS
VSB - VISIBILITY IN STATUTE MILES
WCI - WIND CHILL INDEX
HX  - HEAT INDEX





USA.gov is the U.S. government's official web portal to all federal, state and local government web resources and services.